Torna al catalogo

STARLINK-35795

AttivoComunicazioniVLEO
NORAD 66369·PAYLOAD·🇺🇸 United States

Lanciato Nov 6, 2025 da Vandenberg Space Force Base

Loading…

Prossimi Passaggi (prossime 24 ore)

TLE

AggiornatoSource: CelesTrak SupGP

Epoca: Sep 14, 2026, 21:04 UTC

1 66369C 25254X   26257.87826389  .00002510  00000+0  74196-4 0  2576
2 66369  53.1583  69.6724 0001239  84.8406  47.6894 15.34377773    12

Traccia STARLINK-35795 in tempo reale con AllMySat

Download on the App Store